Location: B�rgermoos
(47.6500°N, 9.0667°E)
Time: 07:35:04
(UTC+00:00)

Vanguard 3 - Pass Details

Date: 10 August 2021
Orbit: 510 x 3260 km, 33.3° (Epoch: 16 September)

Event Time Altitude Azimuth Distance (km) Brightness Sun altitude
Rises 22:19:47 0° 269° (W) 6,724 12.0 -25.2°
Reaches altitude 10° 22:29:28 10° 243° (WSW) 6,101 11.5 -25.7°
Maximum altitude 22:34:27 12° 228° (SW) 6,048 11.3 -25.9°
Drops below altitude 10° 22:39:31 10° 212° (SSW) 6,181 11.2 -26.1°
Enters shadow 22:39:54 10° 211° (SSW) 6,198 11.2 -26.1°
